Location: Keppel Henge
(44.7900°N, 80.9447°W)
Time: 14:45:10
(UTC-04:00)

Tiangong 2 - Visible Passes

Search period start: 22 July 2018 00:00
Search period end: 01 August 2018 00:00
Orbit: 386 x 394 km, 42.8° (Epoch: 22 July)

Date Brightness Start Highest point End Pass type
(mag) Time Alt. Az. Time Alt. Az. Time Alt. Az.
22 Jul 3.6 22:56:47 10° SW 22:57:47 12° SW 22:57:47 12° SW visible
23 Jul 3.1 21:58:14 10° WSW 22:00:29 18° SSW 22:02:33 11° SSE visible
25 Jul 3.7 21:40:48 10° SW 21:41:37 11° SSW 21:42:26 10° SSW visible
